GFSMW_850_dewp_000.txt.gz
Dewpoint
5 6 6 6 6 8 8 7 7 8 8 7 4 4 5 5 1 -2 -2 -2 -4 -4 -5 -4 -4 -3 -3 -2 -3 -5 -7 -9 -11 -12 -10 -9 -8 -8 -12 -7 -4 -6 -7
8 8 9 10 10 9 7 5 5 5 4 4 4 3 -2 -3 -3 -3 -2 -3 -3 -3 -4 -4 -3 -2 -5 -7 -8 -9 -11 -13 -16 -14 -15 -9 -11 -8 -8 -10 -10 -5 -6
6 7 7 7 5 4 2 0 -1 -1 -2 -3 -2 -1 -1 -2 -2 -2 -2 -2 -3 -4 -3 -2 -4 -4 -3 -3 -5 -10 -12 -12 -12 -13 -6 -4 -3 -5 -7 -10 -12 -7 -5
4 3 3 0 -1 -2 -2 -1 -1 -0 -0 -0 0 1 1 0 -1 -2 -2 -3 -3 -2 -3 -3 -3 -4 -3 -6 -9 -9 -11 -9 -12 -9 -5 -3 -3 -3 -4 -4 -6 -9 -9
1 0 -1 -0 -1 0 0 0 1 0 1 1 1 1 0 -0 -1 -2 -3 -2 -2 -3 -6 -9 -5 -6 -5 -7 -7 -7 -7 -11 -10 -9 -9 -11 -11 -9 -4 -6 -6 -6 -8
1 0 1 1 1 1 1 1 1 1 1 1 1 0 -0 -1 -3 -3 -3 -2 -4 -5 -6 -6 -5 -5 -4 -5 -9 -11 -12 -12 -12 -13 -14 -16 -16 -15 -10 -8 -8 -8 -11
1 1 1 1 1 1 1 1 1 1 1 1 0 -0 -2 -4 -5 -3 -3 -2 -2 -3 -4 -4 -2 -2 -6 -7 -7 -8 -13 -14 -15 -16 -15 -14 -15 -15 -14 -12 -13 -13 -14
3 3 2 1 1 1 1 1 1 1 0 0 -1 -3 -5 -7 -7 -5 -6 -6 -7 -5 -4 -4 -2 -4 -5 -2 -8 -9 -14 -13 -14 -14 -14 -15 -15 -14 -13 -12 -12 -12 -12
2 2 2 2 1 1 1 -0 -2 -3 -3 -4 -5 -10 -13 -15 -17 -18 -20 -22 -23 -17 -4 -1 -2 -2 -3 -6 -5 -10 -13 -12 -13 -12 -12 -12 -12 -11 -11 -11 -11 -12 -11
2 1 1 1 1 0 -1 -3 -5 -5 -5 -7 -8 -10 -14 -17 -19 -21 -24 -32 -36 -6 -2 -3 -2 -3 -4 -6 -11 -12 -14 -13 -12 -12 -12 -11 -11 -10 -11 -11 -11 -11 -11
1 0 1 0 0 -1 -3 -4 -6 -6 -7 -9 -11 -15 -15 -17 -20 -24 -27 -27 -11 -4 -4 -5 -3 -5 -7 -12 -13 -15 -13 -12 -12 -11 -11 -11 -11 -11 -11 -14 -14 -14 -15
-0 -0 -0 -1 -3 -5 -7 -6 -6 -7 -9 -11 -13 -12 -12 -14 -18 -21 -21 -19 -10 -5 -5 -5 -4 -5 -13 -14 -14 -14 -12 -13 -12 -11 -11 -11 -11 -14 -15 -13 -12 -13 -15
-0 -0 -1 -4 -6 -7 -7 -7 -7 -9 -11 -12 -11 -12 -12 -13 -15 -16 -17 -15 -7 -5 -4 -3 -8 -14 -14 -14 -14 -14 -13 -11 -11 -11 -11 -12 -13 -12 -11 -11 -12 -13 -14
-0 -2 -5 -6 -7 -7 -3 -8 -10 -11 -12 -11 -11 -10 -11 -12 -14 -15 -13 -12 -7 -4 -4 -9 -14 -14 -12 -14 -13 -13 -12 -11 -11 -11 -13 -12 -10 -10 -10 -11 -11 -12 -13
-2 -4 -6 -7 -5 -5 -9 -10 -11 -11 -11 -11 -11 -10 -10 -11 -14 -11 -11 -11 -7 -6 -5 -11 -14 -11 -10 -13 -12 -12 -11 -11 -12 -13 -13 -11 -10 -11 -11 -11 -12 -12 -12
-3 -5 -6 -6 -8 -10 -11 -11 -12 -12 -11 -11 -10 -9 -9 -13 -11 -10 -9 -8 -5 -6 -7 -12 -10 -8 -12 -12 -11 -12 -12 -13 -15 -17 -14 -14 -13 -13 -12 -14 -12 -12 -13
-3 -6 -7 -8 -9 -10 -12 -12 -12 -11 -11 -10 -10 -9 -11 -10 -10 -9 -8 -6 -5 -6 -7 -8 -7 -8 -12 -11 -11 -12 -13 -17 -19 -17 -15 -15 -15 -14 -14 -14 -14 -13 -12
-4 -7 -8 -8 -10 -12 -12 -12 -12 -11 -11 -10 -9 -11 -9 -8 -10 -10 -8 -6 -6 -7 -7 -7 -12 -11 -9 -10 -12 -13 -17 -20 -17 -16 -15 -15 -15 -15 -13 -13 -12 -13 -13
-5 -7 -8 -10 -12 -13 -13 -12 -11 -11 -10 -9 -12 -9 -7 -7 -9 -11 -8 -8 -7 -7 -8 -11 -9 -8 -11 -11 -13 -16 -20 -18 -17 -16 -15 -15 -15 -14 -13 -13 -13 -13 -13
-6 -8 -10 -11 -13 -12 -11 -11 -12 -10 -13 -12 -9 -8 -7 -7 -8 -10 -7 -9 -9 -10 -10 -9 -10 -11 -11 -13 -15 -20 -18 -17 -17 -16 -15 -15 -15 -14 -13 -13 -13 -13 -13
-4 -10 -10 -12 -11 -10 -13 -13 -14 -16 -15 -14 -13 -9 -6 -6 -8 -10 -9 -9 -10 -11 -10 -11 -11 -10 -11 -14 -17 -19 -18 -19 -20 -16 -15 -15 -15 -14 -14 -13 -13 -13 -13
-9 -9 -11 -9 -10 -15 -17 -18 -17 -16 -15 -14 -14 -11 -8 -6 -7 -10 -11 -13 -10 -10 -11 -10 -9 -10 -12 -14 -16 -18 -18 -20 -28 -24 -16 -16 -16 -19 -18 -15 -14 -14 -14
-9 -10 -9 -12 -18 -19 -18 -16 -16 -15 -15 -14 -13 -10 -8 -6 -6 -11 -12 -12 -9 -10 -9 -8 -8 -11 -12 -13 -14 -18 -19 -20 -28 -33 -25 -21 -23 -21 -20 -17 -14 -14 -14
-4 -10 -15 -19 -20 -18 -17 -15 -15 -15 -15 -13 -10 -10 -7 -6 -5 -10 -12 -11 -9 -8 -8 -8 -9 -11 -12 -13 -14 -17 -19 -19 -22 -29 -28 -25 -24 -25 -23 -20 -17 -16 -14
-12 -17 -20 -19 -18 -16 -15 -15 -15 -15 -14 -11 -9 -8 -6 -6 -6 -7 -10 -9 -8 -9 -10 -9 -10 -10 -11 -12 -13 -15 -18 -18 -19 -26 -27 -27 -28 -29 -28 -27 -21 -18 -16
-17 -19 -19 -17 -16 -15 -14 -14 -15 -13 -11 -10 -6 -6 -6 -6 -6 -7 -7 -7 -8 -10 -10 -10 -10 -10 -11 -12 -12 -14 -14 -16 -18 -19 -24 -25 -26 -27 -28 -28 -29 -28 -21

GFSMW_850_dewp_006.txt.gz
Dewpoint
8 8 7 9 10 10 9 7 6 6 8 4 5 5 4 3 2 -3 -3 -3 -2 -3 -2 -1 -1 -0 0 1 0 -1 -2 -2 -1 -3 -7 -8 -9 -6 -3 -2 -4 -4 -2
8 10 10 10 10 9 9 9 8 9 6 5 4 4 4 1 -4 -2 -2 -2 -2 -2 -2 -1 -0 0 -0 -0 1 -1 -3 -5 -3 -2 -5 -9 -10 -11 -6 -5 -6 -5 -4
9 10 11 11 11 10 10 9 8 5 4 2 -0 -2 -2 -1 0 0 -1 -1 -2 -2 -2 -1 -1 -0 -1 -1 -1 -2 -2 -4 -5 -4 -4 -6 -9 -9 -9 -9 -9 -7 -8
9 10 10 11 10 10 9 6 4 2 -2 -2 -0 -0 1 1 -1 -1 -0 -0 -1 -3 -3 -1 -3 -3 -3 -3 -2 -3 -3 -4 -7 -7 -7 -7 -7 -7 -9 -10 -9 -11 -11
8 8 7 7 6 3 2 1 -1 -1 -2 -1 -0 0 -0 -0 -0 -0 -1 -1 -2 -2 -3 -3 -2 -3 -4 -2 -1 -1 -4 -5 -5 -7 -7 -8 -9 -10 -11 -11 -11 -11 -13
4 3 3 2 1 2 -1 -1 -1 -1 -0 0 -0 -1 -3 -4 -5 -8 -9 -11 -13 -13 -12 -10 -4 -2 -2 -0 -1 -3 -3 -4 -6 -8 -9 -10 -10 -11 -11 -12 -12 -13 -13
1 0 0 0 1 2 0 0 0 0 0 1 -2 -5 -7 -9 -11 -14 -13 -15 -13 -13 -12 -13 -6 -2 -1 -1 -2 -3 -4 -5 -7 -8 -9 -10 -10 -10 -10 -11 -12 -12 -13
1 1 1 1 2 2 1 0 1 1 -1 -4 -5 -7 -11 -13 -12 -14 -15 -10 -10 -9 -7 -6 -3 -1 -1 -2 -2 -2 -4 -6 -8 -8 -9 -9 -10 -11 -10 -10 -11 -11 -11
2 2 2 2 2 1 1 1 -1 -3 -4 -5 -4 -11 -13 -12 -13 -12 -11 -11 -10 -8 -5 -3 -1 -1 -2 -2 -2 -5 -6 -7 -8 -9 -9 -10 -11 -11 -11 -12 -11 -11 -10
2 3 2 2 1 2 1 -1 -3 -5 -1 -2 -10 -12 -11 -10 -12 -14 -18 -17 -14 -8 -5 -3 -1 -2 -2 -3 -5 -7 -8 -9 -10 -10 -10 -11 -12 -11 -11 -12 -12 -12 -12
2 3 2 2 2 1 -1 -2 -4 -2 -4 -9 -12 -11 -10 -11 -12 -11 -14 -17 -19 -7 -6 -4 -3 -3 -5 -6 -5 -8 -9 -10 -10 -10 -10 -10 -11 -11 -11 -12 -12 -12 -12
3 3 2 3 2 -1 -3 -5 -4 -6 -8 -10 -11 -11 -10 -11 -10 -8 -8 -9 -8 -7 -5 -4 -4 -4 -5 -5 -8 -9 -9 -10 -10 -10 -10 -10 -11 -11 -11 -11 -11 -11 -12
3 2 1 1 -1 -3 -6 -4 -5 -6 -10 -11 -11 -11 -10 -10 -6 -7 -7 -7 -6 -5 -4 -4 -4 -5 -6 -8 -9 -9 -8 -9 -9 -9 -9 -10 -10 -10 -11 -11 -11 -10 -10
1 1 -0 -2 -3 -5 -4 -5 -6 -10 -11 -11 -11 -9 -10 -8 -6 -6 -7 -7 -6 -5 -4 -5 -4 -5 -7 -9 -8 -8 -8 -8 -8 -8 -9 -9 -10 -10 -10 -11 -11 -11 -10
0 -0 -2 -3 -5 -6 -4 -5 -9 -10 -11 -11 -10 -8 -9 -8 -6 -6 -7 -7 -5 -4 -4 -5 -6 -7 -8 -8 -9 -8 -7 -8 -9 -10 -11 -12 -12 -15 -14 -11 -11 -11 -11
-0 -1 -2 -3 -4 -6 -5 -7 -10 -11 -11 -11 -10 -9 -9 -8 -6 -7 -7 -6 -6 -5 -5 -5 -5 -6 -7 -7 -8 -10 -9 -10 -11 -12 -13 -13 -13 -12 -13 -12 -12 -13 -12
-0 -0 -1 -3 -5 -7 -7 -8 -10 -11 -11 -11 -11 -12 -12 -8 -7 -7 -7 -7 -7 -6 -6 -6 -5 -5 -5 -10 -10 -10 -11 -10 -12 -13 -13 -13 -13 -12 -12 -12 -12 -11 -11
-0 -0 -1 -2 -5 -7 -7 -9 -11 -12 -12 -11 -11 -12 -8 -8 -8 -8 -7 -7 -7 -7 -7 -8 -6 -6 -8 -10 -10 -11 -10 -12 -13 -13 -12 -12 -12 -12 -12 -12 -12 -13 -13
0 0 -0 -2 -5 -8 -8 -9 -12 -13 -12 -10 -10 -11 -10 -9 -9 -9 -7 -6 -7 -7 -8 -7 -7 -7 -9 -10 -11 -10 -11 -14 -16 -12 -12 -15 -12 -12 -17 -12 -12 -13 -14
1 1 -1 -4 -6 -8 -7 -8 -13 -12 -9 -12 -13 -11 -10 -10 -9 -8 -7 -6 -6 -7 -9 -10 -12 -11 -10 -11 -9 -10 -14 -15 -14 -11 -14 -14 -17 -23 -19 -13 -13 -12 -12
1 -0 -1 -6 -8 -3 -5 -15 -13 -9 -13 -18 -15 -10 -10 -9 -8 -7 -6 -6 -7 -7 -12 -13 -11 -10 -11 -9 -9 -11 -14 -16 -17 -12 -13 -14 -24 -21 -22 -24 -13 -15 -15
-1 -2 -6 -7 -2 -7 -14 -9 -9 -13 -18 -17 -16 -10 -10 -11 -8 -6 -6 -6 -6 -7 -12 -11 -10 -9 -8 -8 -9 -12 -14 -16 -19 -17 -12 -22 -26 -28 -27 -24 -25 -25 -17
-6 -8 -7 -6 -12 -9 -9 -13 -14 -19 -19 -18 -15 -12 -9 -8 -6 -6 -6 -6 -7 -7 -8 -8 -7 -8 -8 -9 -10 -12 -14 -15 -16 -18 -19 -20 -23 -23 -19 -18 -24 -20 -14
-8 -9 -8 -6 -4 -4 -8 -18 -19 -19 -17 -16 -14 -9 -9 -14 -6 -6 -6 -6 -7 -7 -8 -8 -8 -9 -9 -9 -9 -10 -10 -11 -11 -11 -13 -17 -16 -15 -15 -14 -13 -14 -17
-6 -1 -0 -1 -3 -11 -17 -17 -17 -16 -15 -14 -12 -9 -7 -7 -6 -6 -6 -6 -6 -7 -7 -8 -8 -8 -8 -8 -9 -10 -11 -11 -11 -14 -12 -11 -12 -12 -12 -13 -13 -14 -15
-0 -0 -3 -5 -10 -16 -16 -16 -15 -15 -15 -13 -10 -6 -6 -6 -6 -6 -5 -6 -6 -7 -8 -8 -9 -11 -12 -12 -11 -11 -12 -13 -13 -13 -11 -11 -11 -12 -12 -12 -13 -13 -14

GFSMW_850_dewp_012.txt.gz
Dewpoint
5 5 4 5 9 10 9 10 10 7 7 9 6 5 4 4 3 1 -2 -1 -0 1 1 1 1 1 1 1 0 -1 -0 0 -0 -3 -5 -6 -5 -6 -8 -8 -8 -9 -9
5 6 5 5 7 10 10 10 10 9 9 6 5 5 4 3 2 1 1 0 0 -1 0 -0 -0 0 0 -1 -1 -2 -3 -2 -1 -4 -5 -5 -6 -6 -7 -8 -8 -9 -9
6 7 6 7 8 10 10 10 10 9 6 5 4 4 3 0 2 1 2 2 2 1 -0 -2 -3 -3 -5 -2 -2 -3 -3 -1 -1 -4 -5 -5 -5 -5 -6 -7 -9 -11 -11
6 7 9 9 9 10 10 9 9 6 5 3 2 2 2 2 2 1 1 -1 -3 -5 -8 -12 -12 -11 -10 -6 -3 -2 -2 -2 -2 -3 -4 -4 -5 -6 -7 -9 -10 -11 -11
6 8 9 9 9 9 9 8 7 6 4 2 2 2 2 1 1 -1 -5 -9 -12 -13 -12 -12 -14 -20 -17 -13 -5 -2 -1 -1 -2 -2 -3 -5 -7 -9 -10 -9 -10 -10 -11
7 8 9 9 9 10 8 7 5 3 3 3 2 2 1 -1 -5 -6 -9 -12 -13 -12 -11 -12 -17 -12 -7 -4 -3 -1 -1 -1 -3 -3 -3 -6 -8 -8 -8 -8 -8 -9 -9
7 8 9 9 9 8 7 5 3 3 3 2 1 1 -2 -2 -1 -4 -12 -20 -12 -11 -10 -15 -13 -13 -3 -2 -2 -1 -3 -6 -5 -4 -4 -7 -8 -8 -8 -8 -8 -8 -10
7 8 7 8 8 7 6 3 2 3 3 1 -0 -3 -0 1 -4 -9 -14 -21 -16 -14 -12 -11 -14 -4 -2 -2 -4 -4 -4 -4 -3 -4 -5 -6 -8 -7 -9 -10 -10 -10 -10
6 5 6 4 4 4 4 2 2 3 2 -1 -3 -2 0 -3 -9 -13 -16 -17 -18 -13 -11 -15 -10 -4 -3 -5 -4 -6 -4 -4 -5 -4 -6 -7 -8 -8 -8 -9 -10 -10 -9
4 3 3 1 2 3 4 2 2 2 -1 -3 -1 -0 -2 -5 -9 -12 -12 -17 -13 -15 -12 -9 -7 -6 -5 -3 -4 -4 -4 -4 -5 -5 -6 -8 -7 -7 -8 -9 -9 -10 -10
3 1 0 1 2 3 3 3 2 1 -3 -2 -1 -3 -3 -7 -9 -8 -9 -10 -9 -11 -8 -7 -6 -6 -6 -6 -6 -5 -7 -6 -6 -5 -6 -6 -7 -8 -9 -9 -10 -11 -11
2 1 0 1 2 3 3 3 2 -2 -3 -2 -3 -4 -5 -5 -5 -6 -6 -6 -8 -7 -7 -6 -5 -6 -6 -6 -6 -6 -7 -7 -7 -7 -5 -6 -7 -7 -8 -10 -11 -10 -10
2 1 1 2 3 3 3 3 2 -2 -2 -3 -4 -4 -5 -4 -5 -5 -6 -6 -6 -7 -7 -6 -5 -6 -6 -6 -6 -7 -8 -7 -6 -6 -6 -7 -8 -10 -11 -11 -11 -12 -13
1 1 1 3 3 3 3 3 0 -2 -2 -4 -5 -5 -5 -5 -5 -5 -6 -5 -6 -6 -6 -5 -6 -5 -6 -6 -8 -8 -8 -7 -6 -7 -8 -9 -11 -11 -12 -12 -14 -14 -12
0 1 1 3 3 3 3 2 -1 -2 -3 -4 -7 -8 -8 -6 -5 -6 -5 -5 -6 -6 -6 -7 -7 -6 -6 -4 -6 -7 -9 -11 -9 -10 -10 -10 -11 -12 -12 -13 -12 -11 -12
-5 -0 1 3 3 3 3 1 -1 -2 -3 -5 -8 -8 -7 -6 -6 -6 -7 -6 -6 -7 -7 -7 -7 -7 -6 -5 -6 -6 -11 -13 -12 -9 -10 -10 -12 -13 -13 -11 -11 -11 -12
-3 -1 1 2 3 2 2 1 -2 -2 -3 -6 -7 -7 -6 -6 -5 -8 -7 -7 -8 -8 -7 -7 -7 -8 -7 -7 -6 -7 -12 -10 -10 -9 -10 -11 -11 -12 -11 -12 -14 -18 -14
-1 -1 0 1 1 1 1 -0 -2 -2 -5 -6 -7 -7 -7 -4 -7 -9 -9 -9 -9 -9 -8 -7 -8 -8 -7 -6 -6 -7 -9 -10 -10 -9 -10 -10 -11 -11 -14 -16 -24 -25 -18
-2 -2 -1 -0 0 0 -1 -2 -3 -4 -6 -7 -6 -4 -4 -7 -9 -10 -10 -10 -10 -9 -8 -8 -8 -8 -8 -8 -8 -9 -9 -11 -9 -10 -11 -10 -11 -13 -14 -19 -26 -25 -23
-3 -2 -1 -1 -0 0 -1 -3 -4 -6 -6 -6 -4 -7 -4 -6 -10 -10 -10 -10 -9 -8 -8 -7 -7 -7 -8 -9 -10 -9 -10 -10 -10 -12 -12 -10 -10 -11 -13 -20 -22 -20 -18
-1 -0 0 0 1 0 -1 -4 -5 -6 -4 -4 -4 -4 -6 -10 -9 -9 -8 -8 -7 -7 -7 -7 -6 -6 -7 -10 -10 -11 -10 -11 -12 -14 -14 -10 -10 -11 -17 -18 -17 -15 -14
-0 1 1 -0 -2 -3 -3 -6 -5 -3 -3 -5 -3 -6 -9 -8 -6 -7 -12 -7 -7 -6 -6 -5 -6 -6 -8 -8 -9 -8 -8 -11 -12 -14 -14 -13 -14 -15 -17 -15 -14 -13 -14
-2 -2 -2 -4 -6 -6 -5 -4 -3 -3 -3 -5 -6 -11 -16 -16 -14 -13 -14 -10 -6 -6 -6 -6 -6 -7 -8 -7 -6 -7 -8 -10 -12 -12 -13 -13 -15 -13 -12 -12 -11 -11 -13
-6 -6 -5 -5 -5 -5 -3 -2 -3 -3 -4 -9 -16 -18 -16 -15 -14 -9 -8 -9 -5 -6 -6 -6 -6 -6 -8 -7 -8 -9 -8 -8 -10 -11 -11 -13 -14 -12 -12 -11 -11 -11 -12
-5 -4 -3 -2 -2 -2 -2 -2 -4 -6 -12 -17 -15 -16 -15 -13 -9 -7 -5 -6 -9 -6 -6 -5 -5 -5 -6 -7 -9 -10 -10 -8 -9 -10 -11 -13 -12 -11 -12 -13 -12 -12 -13
-3 -3 -2 -2 -1 -1 -3 -6 -8 -13 -16 -15 -15 -14 -13 -11 -10 -7 -5 -5 -7 -7 -7 -6 -6 -6 -5 -6 -8 -8 -9 -12 -10 -11 -12 -13 -12 -11 -11 -12 -12 -11 -11

GFSMW_850_dewp_015.txt.gz
Dewpoint
4 3 5 7 8 8 9 10 8 8 6 7 5 5 3 2 -1 0 -2 -1 -1 -1 -1 -1 -0 -2 -4 -3 -2 -4 -2 -3 -4 -4 -2 -3 -6 -6 -6 -7 -7 -8 -9
3 3 6 8 9 9 9 9 8 8 6 9 5 4 3 2 1 -1 0 1 1 -1 -2 -3 -5 -5 -6 -8 -8 -5 -4 -6 -3 -1 -2 -4 -5 -6 -6 -6 -7 -10 -10
5 5 4 8 9 9 9 9 8 6 9 9 6 5 4 2 1 1 2 1 1 -1 -3 -6 -10 -13 -12 -11 -10 -6 -4 -2 -2 -2 -3 -4 -5 -5 -6 -8 -9 -10 -10
5 5 6 8 9 10 10 10 9 8 9 7 5 5 3 2 2 2 2 1 -2 -7 -13 -21 -25 -24 -25 -25 -20 -12 -6 -2 -2 -1 -2 -3 -4 -7 -8 -9 -9 -9 -10
6 7 7 7 9 10 10 10 10 9 5 5 4 2 1 3 2 1 1 -4 -5 -14 -20 -25 -25 -26 -27 -18 -9 -4 -2 -1 -1 -2 -3 -3 -4 -6 -8 -8 -8 -9 -9
7 7 7 8 8 9 10 9 9 8 5 3 2 1 2 3 2 1 -3 -1 -3 -14 -23 -25 -26 -27 -17 -7 -3 -2 -1 -1 -2 -5 -6 -4 -6 -7 -8 -8 -9 -9 -11
6 8 8 9 9 9 10 9 9 6 6 4 2 2 2 1 0 -2 0 -0 -9 -22 -27 -26 -27 -24 -11 -3 -3 -4 -6 -5 -5 -7 -6 -4 -6 -8 -7 -9 -9 -10 -11
7 8 9 9 9 9 10 8 6 6 5 2 2 2 2 -0 -1 0 -1 -9 -20 -24 -25 -26 -27 -14 -5 -3 -2 -5 -6 -6 -4 -4 -5 -6 -6 -8 -7 -8 -8 -9 -9
7 7 9 9 9 10 8 6 5 5 4 2 2 1 -1 -1 -0 -2 -9 -16 -21 -22 -20 -22 -22 -15 -6 -4 -3 -3 -5 -4 -4 -4 -4 -5 -6 -7 -7 -7 -8 -9 -9
7 8 9 9 9 9 8 6 4 3 2 2 1 -1 -1 -1 -2 -8 -13 -14 -15 -18 -20 -22 -12 -10 -12 -7 -6 -5 -5 -5 -7 -4 -4 -4 -5 -5 -6 -8 -8 -9 -10
6 6 7 7 7 6 5 4 2 2 2 2 0 -2 -1 -2 -5 -10 -9 -12 -15 -14 -16 -12 -9 -9 -7 -6 -6 -6 -6 -7 -7 -7 -6 -6 -5 -6 -7 -7 -9 -10 -10
5 4 4 4 3 2 2 3 3 2 2 2 -2 -2 -3 -4 -7 -7 -7 -8 -9 -10 -11 -10 -10 -8 -5 -5 -6 -7 -7 -6 -7 -7 -7 -7 -7 -8 -8 -10 -11 -12 -12
4 3 2 2 1 2 3 3 3 2 2 -0 -3 -2 -3 -4 -4 -5 -5 -6 -7 -8 -7 -10 -10 -6 -5 -5 -8 -7 -7 -8 -8 -7 -6 -6 -8 -9 -11 -11 -12 -12 -14
3 3 1 0 0 1 2 3 3 3 1 -2 -2 -2 -3 -5 -4 -4 -5 -6 -6 -6 -6 -8 -8 -6 -6 -6 -6 -6 -7 -7 -9 -11 -8 -9 -10 -10 -10 -11 -13 -13 -15
0 2 2 1 1 2 3 3 3 3 2 -2 -2 -4 -6 -5 -4 -5 -5 -4 -5 -5 -6 -7 -7 -7 -6 -6 -7 -6 -6 -6 -6 -17 -15 -12 -11 -11 -11 -13 -13 -13 -12
-4 -3 -0 2 2 3 3 3 3 3 1 -2 -3 -5 -6 -5 -5 -4 -2 -6 -8 -8 -7 -8 -7 -7 -7 -7 -8 -7 -6 -6 -12 -12 -11 -10 -12 -11 -12 -12 -12 -11 -13
-3 -3 -0 2 3 4 3 3 3 2 -0 -2 -3 -7 -6 -6 -4 -3 -2 -8 -7 -8 -8 -8 -8 -7 -7 -8 -8 -7 -7 -7 -9 -10 -11 -11 -10 -11 -11 -12 -13 -19 -25
-1 -1 -1 -0 2 3 3 3 3 1 -2 -2 -5 -7 -6 -5 -3 -2 -6 -8 -9 -8 -9 -9 -8 -7 -7 -7 -7 -7 -8 -8 -8 -10 -11 -12 -12 -11 -11 -13 -15 -19 -22
-2 -1 -2 -2 -1 -0 1 2 2 -1 -2 -5 -6 -6 -6 -4 -2 -5 -8 -8 -9 -10 -10 -9 -8 -7 -7 -7 -7 -7 -8 -9 -9 -11 -11 -13 -12 -10 -11 -12 -13 -19 -18
-1 -1 -0 -0 -0 0 1 -0 -1 -3 -6 -6 -6 -5 -4 -2 -2 -6 -10 -9 -8 -9 -8 -8 -8 -7 -7 -7 -7 -7 -9 -11 -11 -12 -12 -14 -14 -12 -11 -12 -17 -17 -15
-0 -1 -0 0 0 0 -0 -2 -4 -5 -6 -5 -4 -3 -2 -2 -5 -10 -9 -8 -8 -10 -13 -7 -6 -6 -6 -6 -7 -9 -10 -11 -10 -11 -13 -14 -14 -15 -14 -15 -16 -14 -14
-0 0 1 -1 -2 -3 -3 -4 -5 -4 -3 -3 -2 -2 -2 -5 -10 -7 -8 -12 -14 -12 -7 -6 -5 -5 -5 -7 -8 -10 -10 -10 -9 -9 -12 -13 -15 -14 -15 -13 -13 -12 -12
-2 -2 -1 -2 -4 -4 -4 -4 -3 -3 -2 -1 -0 -1 -7 -12 -15 -13 -14 -13 -11 -7 -7 -6 -6 -6 -6 -7 -8 -9 -9 -9 -11 -9 -10 -12 -14 -14 -14 -13 -12 -11 -12
-5 -5 -5 -5 -5 -5 -5 -5 -4 -3 -1 -1 -6 -9 -13 -16 -15 -14 -11 -8 -6 -6 -7 -5 -5 -5 -5 -6 -7 -7 -8 -10 -10 -11 -10 -11 -12 -13 -13 -11 -12 -13 -11
-5 -5 -4 -4 -4 -3 -2 -2 -2 -3 -7 -10 -16 -15 -15 -15 -14 -13 -10 -8 -6 -6 -7 -9 -6 -6 -5 -5 -6 -6 -7 -9 -9 -10 -9 -9 -10 -12 -13 -12 -12 -13 -11
-1 -2 -1 -1 -1 -2 -5 -8 -12 -14 -16 -16 -14 -14 -14 -14 -13 -11 -10 -8 -6 -5 -6 -7 -7 -7 -6 -6 -6 -6 -6 -7 -7 -8 -11 -10 -11 -12 -13 -11 -12 -13 -11